This is the latest recevied weather packets stored in our database for station/object N7NMS-13. If no packets are shown the sender has not sent any weather packets the latest 10 day(s).
| Time | Temp. | Humidity | Pressure | Rain* | Wind** | Luminosity | Snow |
|---|---|---|---|---|---|---|---|
| 1777305429 | 15.56° C | 13% | - | 0 mm | - | - | - |
| 1777304829 | 15.56° C | 58% | - | 0 mm | - | - | - |
| 1777304229 | 15.56° C | 62% | - | 0 mm | - | - | - |
| 1777303629 | 15° C | 65% | - | 0 mm | - | - | - |
| 1777303029 | 15° C | 64% | - | 0 mm | - | - | - |
| 1777302429 | 15° C | 64% | - | 0 mm | - | - | - |
| 1777301829 | 14.44° C | 69% | - | 0 mm | - | - | - |
| 1777301229 | 13.89° C | 72% | - | 0 mm | - | - | - |
| 1777300629 | 13.89° C | 70% | - | 0 mm | - | - | - |
| 1777300029 | 13.33° C | 70% | - | 0 mm | - | - | - |
| 1777299429 | 12.78° C | 74% | - | 0 mm | - | - | - |
| 1777298798 | 11.67° C | 77% | - | 0 mm | - | - | - |
| 1777298198 | 11.11° C | 79% | - | 0 mm | - | - | - |
| 1777297598 | 11.11° C | 83% | - | 0 mm | - | - | - |
| 1777296998 | 10.56° C | 12% | - | 0 mm | - | - | - |
| 1777296398 | 10.56° C | 86% | - | 0 mm | - | - | - |
| 1777295798 | 10° C | 85% | - | 0 mm | - | - | - |
| 1777295198 | 9.44° C | 90% | - | 0 mm | - | - | - |
| 1777294598 | 8.89° C | 93% | - | 0 mm | - | - | - |
| 1777293968 | 7.22° C | 97% | - | 0 mm | - | - | - |
| 1777293636 | 7.22° C | 97% | - | 0 mm | - | - | - |
| 1777293036 | 6.67° C | 97% | - | 0 mm | - | - | - |
| 1777292436 | 6.67° C | 97% | - | 0 mm | - | - | - |
| 1777291806 | 6.11° C | 97% | - | 0 mm | - | - | - |
| 1777291176 | 5.56° C | 98% | - | 0 mm | - | - | - |
* Rain latest hour (hover to see other rain measurements)
** Current wind speed in m/s (hover to see current wind gust speed)